User: anonymous   Login
Location: Fort Wayne
(41.1310°N, 85.1290°W)
Time: 19:29:09
(UTC-04:00)
Language:

Cosmos 1980 - Orbit

View from above orbital plane
View from above orbital plane
View from above satellite
View from above satellite

Ground track
Ground track

The orbit data is extracted from the following two-line orbital elements,

1 19649U 88102A   16241.67270493  .00000091  00000-0  72123-4 0  9999
2 19649  71.0024 319.7759 0004520  13.4001 346.7240 14.14652645433202
Epoch (UTC): 28 August 2016 16:08:41
Eccentricity: 0.0004520
inclination: 71.0024°
perigee height: 840 km
apogee height: 847 km
right ascension of ascending node: 319.7759°
argument of perigee: 13.4001°
revolutions per day: 14.14652645
mean anomaly at epoch: 346.7240°
orbit number at epoch: 43320

The dashed part of the orbit path shows where the satellite is in the earth's shadow,  

DLR